Live-Position
3D-Globus wird geladen...
Über Starlink 5797
Group: 3 satellites
Beschreibung wird geladen...
Nächste Überflüge
Passes for default location (London). Set your location on the main map for personalized predictions.
Höhenverlauf
Loading altitude history...
No altitude history available
Zweizeiliger Elementsatz
1 55784U 23028AV 26105.27042642 -.00002460 00000-0 -19850-3 0 9995
2 55784 69.9978 112.3052 0003530 267.5330 92.5425 14.98319883172506
Epoch: 15. Apr. 2026 •
Age: 18 hours
Aktueller Status
Höhe 575.1 km
Geschwindigkeit 7.57 km/s
Subsatellitenpunkt -3.89°S,
96.56°W
Startdatum 3. März 2023
Alter 3.1 years
Typ internet
Startgruppe
Falcon 9 •
Group 2-7 •
45 satellites
Starlink 5592
55741
Starlink 5594 55742
Starlink 5602 55743
Starlink 5601 55744
Starlink 5579 55746
Starlink 5539 55747
Starlink 5580 55748
Starlink 5573 55750
Starlink 5577 55751
Starlink 5613 55752
Starlink 5617 55753
Starlink 5612 55754
Starlink 5614 55756
Starlink 5544 55757
Starlink 5072 55758
Starlink 5532 55760
Starlink 5611 55761
Starlink 5603 55762
Starlink 5593 55763
Starlink 5499 55764
...and 24 more
Technische Details
Klassifizierung Payload
Masse 305.00 kg
Trockenmasse 290.00 kg
Gesamtmasse 305.00 kg
Länge 0.20 m
Durchmesser 2.80 m
Spannweite 9.00 m
Form Box + pan
Hersteller SPXS
Bus-Typ Starlink
Phasenstatus In Orbit
Besitzer/Staat SPXS/US
Most Searched
Loading...